Stations météo

réclame
Mon MeteoGroup
St-Girons, France (7627): Température de l'air & dewpoint: 11.01.2020 23:00:00 - 17.01.2020 23:00:00 (CET)St-Girons, France (7627): Température de l'air 5cm: 11.01.2020 23:00:00 - 17.01.2020 23:00:00 (CET)St-Girons, France (7627): Température de l'air -20cm & Température de l'air -100cm: 11.01.2020 23:00:00 - 17.01.2020 23:00:00 (CET)St-Girons, France (7627): Vitesse du vent & gusts: 11.01.2020 23:00:00 - 17.01.2020 23:00:00 (CET)St-Girons, France (7627): Direction du vent: 11.01.2020 23:00:00 - 17.01.2020 23:00:00 (CET)St-Girons, France (7627): reduced air pressure: 11.01.2020 23:00:00 - 17.01.2020 23:00:00 (CET)St-Girons, France (7627): visibility: 11.01.2020 23:00:00 - 17.01.2020 23:00:00 (CET)St-Girons, France (7627): Ensoleillement: 11.01.2020 23:00:00 - 17.01.2020 23:00:00 (CET)St-Girons, France (7627): Quantités de précipitations: 11.01.2020 23:00:00 - 17.01.2020 23:00:00 (CET)
Date & Time tt [°C] td [°C] tt 5cm [°C] tt -20cm [°C] tt -100cm [°C] ff [km/h] ff [knt] fx [km/h] fx [knt] dd ppp [hPa] vv [km] sd [min] rr [mm]
17.01.2020 23:00:00 3,1 1,9 0,4 6,8 9,2 4 2 8 4 SSE 1034,8 20 0 0,0
17.01.2020 22:00:00 4,9 1,9 1,1 6,8 9,2 2 1 23 12 NNW 1034,8 20 0 0,0
17.01.2020 21:00:00 4,1 3,2 1,6 6,8 9,2 6 3 10 5 SE 1034,7 20 0 0,0
17.01.2020 20:00:00 4,8 3,1 3,1 6,7 9,2 7 4 24 13 NW 1034,1 20 0 0,4
17.01.2020 19:00:00 5,2 3,2 4,1 6,7 9,2 11 6 42 23 W 1033,3 20 0 0,8
17.01.2020 18:00:00 7,5 2,6 4,9 6,7 9,2 21 11 34 19 WNW 1031,6 20 12 0,0
17.01.2020 17:00:00 7,9 2,1 7,2 6,7 9,2 3 2 26 14 WSW 1030,6 20 18 0,0
17.01.2020 16:00:00 7,1 3,5 5,1 6,6 9,2 8 4 29 15 W 1030,3 20 0 0,0
17.01.2020 15:00:00 5,6 3,3 4,6 6,6 9,3 4 2 37 20 W 1030,5 20 0 2,4
17.01.2020 14:00:00 5,5 4,0 5,0 6,7 9,3 16 9 49 26 W 1030,3 10 0 2,0
17.01.2020 13:00:00 6,6 6,0 6,2 6,6 9,3 11 6 28 15 NW 1029,3 7 0 1,8
17.01.2020 12:00:00 6,0 5,3 4,6 6,6 9,3 18 10 67 36 NW 1029,3 3,6 0 4,9
17.01.2020 11:00:00 7,1 2,2 5,7 6,7 9,3 0 0 7 4 N 1026,4 20 16 0,0
17.01.2020 10:00:00 4,9 1,9 2,7 6,7 9,3 0 0 8 5 N 1026,3 20 6 0,0
17.01.2020 09:00:00 2,8 0,7 -0,1 6,7 9,3 0 0 6 3 N 1025,9 20 0 0,0
17.01.2020 08:00:00 2,2 -0,7 -0,2 6,7 9,3 2 1 10 5 SSE 1025,6 20 0 0,0
17.01.2020 07:00:00 2,5 -0,4 -0,2 6,7 9,3 3 1 9 5 E 1025,4 20 0 0,0
17.01.2020 06:00:00 3,7 0,6 2,2 6,8 9,3 3 2 8 4 SE 1024,0 20 0 0,0
17.01.2020 05:00:00 3,9 0,1 2,7 6,8 9,3 4 2 11 6 SSW 1024,0 20 0 0,0
17.01.2020 04:00:00 4,2 -0,8 3,1 6,8 9,3 3 2 17 9 SSW 1023,7 20 0 0,0
17.01.2020 03:00:00 4,6 -0,2 0,5 6,8 9,3 11 6 16 9 SSE 1023,4 20 0 0,0
17.01.2020 02:00:00 2,2 -0,7 0,2 6,8 9,3 3 2 12 6 E 1024,0 20 0 0,0
17.01.2020 01:00:00 2,6 -1,8 -1,0 6,9 9,3 7 4 11 6 S 1024,0 20 0 0,0
17.01.2020 00:00:00 5,1 0,3 -0,8 6,9 9,3 6 3 23 12 SE 1023,1 20 0 0,0
16.01.2020 23:00:00 2,5 -2,6 -0,7 6,9 9,4 4 2 16 9 SE 1023,5 20 0 0,0
16.01.2020 22:00:00 5,8 1,1 3,1 6,8 9,4 10 6 19 10 SSE 1022,9 20 0 0,0
16.01.2020 21:00:00 5,9 -0,8 4,2 6,8 9,3 10 6 24 13 SE 1023,1 20 0 0,0
16.01.2020 20:00:00 7,2 0,2 3,6 6,8 9,4 14 8 22 12 SE 1023,3 20 0 0,0
16.01.2020 19:00:00 8,4 1,1 4,6 6,7 9,4 15 8 22 12 SSE 1022,7 20 0 0,0
16.01.2020 18:00:00 9,2 2,7 6,5 6,6 9,4 8 4 16 9 SE 1023,3 20 0 0,0
16.01.2020 17:00:00 13,7 2,9 15,3 6,5 9,4 8 4 15 8 E 1022,6 20 60 0,0
16.01.2020 16:00:00 15,0 1,8 18,5 6,4 9,3 7 4 13 7 SE 1022,4 20 60 0,0
16.01.2020 15:00:00 15,4 0,4 21,4 6,4 9,3 5 3 11 6 ESE 1022,3 20 60 0,0
16.01.2020 14:00:00 14,8 0,2 18,6 6,4 9,4 6 4 15 8 E 1022,6 20 60 0,0
16.01.2020 13:00:00 13,1 0,1 17,7 6,4 9,4 9 5 16 9 SE 1023,6 20 60 0,0
16.01.2020 12:00:00 11,0 -0,8 13,8 6,4 9,4 7 4 13 7 SE 1024,9 20 60 0,0
16.01.2020 11:00:00 8,2 -0,8 6,7 6,5 9,4 10 5 19 10 SE 1025,7 20 60 0,0
16.01.2020 10:00:00 4,7 -2,0 -3,8 6,5 9,4 9 5 19 10 SE 1026,4 20 60 0,0
16.01.2020 09:00:00 -2,2 -4,2 -5,9 6,6 9,4 0 0 8 5 N 1027,8 20 4 0,0
16.01.2020 08:00:00 -1,2 -3,4 -5,6 6,6 9,4 0 0 5 3 N 1027,5 20 0 0,0
16.01.2020 07:00:00 0,3 -3,1 -4,1 6,7 9,4 0 0 9 5 N 1026,8 20 0 0,0
16.01.2020 06:00:00 2,6 -3,1 0,8 6,7 9,4 10 6 29 16 S 1025,5 20 0 0,0
16.01.2020 05:00:00 3,9 -2,7 2,1 6,7 9,4 16 9 31 17 SE 1025,7 20 0 0,0
16.01.2020 04:00:00 3,5 -2,1 1,1 6,7 9,4 16 8 27 15 SE 1026,6 20 0 0,0
16.01.2020 03:00:00 4,0 -1,6 -1,4 6,8 9,4 14 8 22 12 SE 1027,0 20 0 0,0
16.01.2020 02:00:00 1,0 -2,2 -3,1 6,8 9,4 5 3 14 7 SE 1027,6 20 0 0,0
16.01.2020 01:00:00 1,0 -1,9 -2,6 6,8 9,4 5 3 13 7 SE 1028,2 20 0 0,0
16.01.2020 00:00:00 0,7 -1,4 -2,1 6,8 9,4 3 2 7 4 WSW 1028,8 20 0 0,0
15.01.2020 23:00:00 3,6 -1,2 0,2 6,9 9,4 5 3 22 12 S 1027,5 20 0 0,0
15.01.2020 22:00:00 3,3 -0,9 0,4 6,9 9,5 6 3 15 8 SSE 1027,6 20 0 0,0
15.01.2020 21:00:00 3,2 -0,3 -0,5 6,8 9,5 6 3 11 6 SSE 1027,7 20 0 0,0
15.01.2020 20:00:00 4,2 0,0 -0,4 6,8 9,5 0 0 9 5 N 1027,2 20 0 0,0
15.01.2020 19:00:00 6,8 0,9 2,2 6,7 9,5 5 3 11 6 SSE 1025,7 20 0 0,0
15.01.2020 18:00:00 8,7 1,6 4,4 6,6 9,5 6 3 9 5 SSE 1024,1 20 0 0,0
15.01.2020 17:00:00 12,5 2,1 13,2 6,5 9,5 5 3 21 11 N 1022,6 20 60 0,0
15.01.2020 16:00:00 15,0 2,5 17,9 6,5 9,5 9 5 20 11 NNW 1021,0 20 60 0,0
15.01.2020 15:00:00 15,0 1,1 18,7 6,4 9,5 8 4 17 9 ESE 1019,6 20 60 0,0
15.01.2020 14:00:00 14,2 0,4 20,0 6,4 9,5 9 5 22 12 E 1019,6 20 60 0,0
15.01.2020 13:00:00 12,9 -0,4 17,6 6,4 9,5 8 4 16 9 ESE 1020,4 20 60 0,0
15.01.2020 12:00:00 11,3 -1,8 14,6 6,4 9,5 9 5 18 10 SE 1021,1 20 60 0,0
15.01.2020 11:00:00 7,9 -1,6 1,4 6,5 9,5 5 3 15 8 SE 1021,4 20 50 0,0
15.01.2020 10:00:00 1,8 -3,5 -0,7 6,5 9,5 9 5 13 7 SSE 1021,5 20 7 0,0
15.01.2020 09:00:00 -0,1 -4,0 -1,1 6,6 9,5 2 1 18 10 S 1021,1 20 2 0,0
15.01.2020 08:00:00 2,2 -3,3 -3,4 6,6 9,5 7 4 16 9 ESE 1020,2 20 0 0,0
15.01.2020 07:00:00 1,6 -3,9 -1,0 6,7 9,5 3 1 19 10 E 1020,4 20 0 0,0
15.01.2020 06:00:00 2,4 -2,7 -2,4 6,7 9,5 9 5 20 11 SE 1019,8 20 0 0,0
15.01.2020 05:00:00 -0,5 -2,7 -3,5 6,8 9,6 3 2 9 5 S 1019,9 20 0 0,0
15.01.2020 04:00:00 -0,8 -2,7 -3,7 6,8 9,6 3 2 7 4 E 1020,1 20 0 0,0
15.01.2020 03:00:00 -0,5 -2,6 -2,8 6,8 9,5 2 1 11 6 E 1020,1 20 0 0,0
15.01.2020 02:00:00 -0,4 -1,7 -3,7 6,9 9,6 2 1 8 4 S 1019,9 20 0 0,0
15.01.2020 01:00:00 0,4 -1,5 -2,5 6,8 9,6 5 3 14 8 NNE 1019,0 20 0 0,0
15.01.2020 00:00:00 3,4 -0,3 0,0 6,8 9,6 12 7 21 11 SSE 1017,6 20 0 0,0
14.01.2020 23:00:00 3,5 -0,7 0,7 6,8 9,6 13 7 22 12 SSE 1017,3 20 0 0,0
14.01.2020 22:00:00 3,7 -1,5 1,8 6,8 9,6 12 7 23 13 SSE 1017,6 20 0 0,0
14.01.2020 21:00:00 4,7 0,5 2,8 6,8 9,6 15 8 22 12 SSE 1017,6 20 0 0,0
14.01.2020 20:00:00 6,1 1,8 4,1 6,7 9,6 14 8 19 11 SE 1017,8 20 0 0,0
14.01.2020 19:00:00 7,5 2,8 3,6 6,7 9,6 12 6 19 10 SE 1017,8 20 0 0,0
14.01.2020 18:00:00 8,2 2,8 4,7 6,6 9,6 5 3 14 7 SE 1017,5 20 0 0,0
14.01.2020 17:00:00 12,4 3,1 12,6 6,5 9,6 6 3 12 6 ESE 1016,7 20 57 0,0
14.01.2020 16:00:00 14,1 1,7 20,7 6,4 9,6 3 1 6 3 NE 1016,0 20 60 0,0
14.01.2020 15:00:00 15,2 1,3 20,6 6,3 9,6 2 1 8 4 NW 1015,7 20 60 0,0
14.01.2020 14:00:00 13,0 -0,3 20,6 6,3 9,6 3 2 13 7 NE 1016,2 20 60 0,0
14.01.2020 13:00:00 11,9 -1,3 17,8 6,3 9,6 5 3 12 7 E 1016,8 20 60 0,0
14.01.2020 12:00:00 10,1 -2,6 15,4 6,4 9,7 8 4 18 10 ESE 1017,7 20 60 0,0
14.01.2020 11:00:00 7,8 -2,8 10,6 6,4 9,6 0 0 11 6 N 1018,7 20 60 0,0
14.01.2020 10:00:00 4,4 -4,1 1,3 6,4 9,7 3 2 18 10 E 1019,0 20 51 0,0
14.01.2020 09:00:00 1,8 -5,4 1,1 6,5 9,7 15 8 32 17 W 1018,8 20 5 0,0
14.01.2020 08:00:00 4,4 -6,2 1,4 6,5 9,7 16 8 29 16 SE 1017,6 20 0 0,0
14.01.2020 07:00:00 3,1 -5,6 0,4 6,6 9,7 13 7 27 14 SE 1018,4 20 0 0,0
14.01.2020 06:00:00 2,3 -5,1 -0,6 6,6 9,7 11 6 16 9 SE 1018,9 20 0 0,0
14.01.2020 05:00:00 2,3 -5,6 -2,4 6,7 9,7 6 4 17 9 SE 1018,9 20 0 0,0
14.01.2020 04:00:00 0,4 -5,0 -5,3 6,7 9,7 6 3 11 6 ESE 1019,2 20 0 0,0
14.01.2020 03:00:00 -1,4 -4,9 -5,3 6,7 9,7 4 2 7 4 SE 1020,2 20 0 0,0
14.01.2020 02:00:00 -0,4 -5,2 -3,9 6,7 9,7 2 1 11 6 E 1020,6 20 0 0,0
14.01.2020 01:00:00 2,3 -6,1 -0,6 6,8 9,7 3 1 26 14 SW 1020,1 20 0 0,0
14.01.2020 00:00:00 2,5 -5,2 -2,1 6,8 9,7 8 5 16 9 SE 1020,0 20 0 0,0
13.01.2020 23:00:00 4,1 -5,4 -2,6 6,8 9,7 9 5 23 12 SE 1019,3 20 0 0,0
13.01.2020 22:00:00 2,5 -4,5 -2,3 6,8 9,7 2 1 21 12 ESE 1019,7 20 0 0,0
13.01.2020 21:00:00 5,2 -5,2 -1,0 6,8 9,7 13 7 24 13 SE 1018,8 20 0 0,0
13.01.2020 20:00:00 5,3 -4,3 2,1 6,7 9,7 5 3 21 11 ESE 1019,2 20 0 0,0
13.01.2020 19:00:00 7,0 -3,0 2,7 6,7 9,7 14 7 22 12 SE 1018,8 20 0 0,0
13.01.2020 18:00:00 5,2 -1,3 1,5 6,6 9,7 11 6 16 8 SSE 1020,1 20 10 0,0
13.01.2020 17:00:00 9,5 -1,3 7,8 6,5 9,7 6 4 14 7 ESE 1019,6 20 21 0,0
13.01.2020 16:00:00 11,3 -0,8 12,2 6,5 9,8 3 2 8 4 SE 1019,3 18 0 0,0
13.01.2020 15:00:00 12,2 -2,5 14,6 6,5 9,8 5 3 8 4 SSE 1020,0 20 55 0,0
13.01.2020 14:00:00 11,7 -3,3 14,4 6,5 9,8 4 2 13 7 SSE 1020,3 20 60 0,0
13.01.2020 13:00:00 9,7 -3,3 11,5 6,6 9,8 6 4 16 9 SE 1021,6 20 54 0,0
13.01.2020 12:00:00 6,6 -3,1 7,7 6,6 9,8 8 4 14 8 SE 1023,6 20 54 0,0
13.01.2020 11:00:00 4,3 -2,6 3,0 6,7 9,8 4 2 23 12 S 1024,8 20 49 0,0
13.01.2020 10:00:00 1,9 -4,4 -2,1 6,8 9,8 10 5 21 11 SSE 1025,5 20 56 0,0
13.01.2020 09:00:00 0,1 -5,5 -6,3 6,8 9,8 10 5 21 11 SE 1025,8 20 4 0,0
13.01.2020 08:00:00 -0,5 -5,3 -4,4 6,9 9,8 13 7 23 13 SSE 1026,3 20 0 0,0
13.01.2020 07:00:00 -0,9 -4,4 -7,5 6,9 9,8 8 5 19 10 SSE 1027,0 20 0 0,0
13.01.2020 06:00:00 -2,2 -2,9 -6,5 7,0 9,8 3 2 14 8 SSW 1028,0 20 0 0,0
13.01.2020 05:00:00 -1,8 -4,1 -6,4 7,0 9,8 6 3 11 6 SSE 1028,6 20 0 0,0
13.01.2020 04:00:00 -1,8 -2,6 -6,6 7,1 9,8 4 2 22 12 W 1029,2 20 0 0,0
13.01.2020 03:00:00 0,2 -2,3 -6,7 7,2 9,8 13 7 24 13 SE 1029,2 20 0 0,0
13.01.2020 02:00:00 -2,0 -2,7 -5,8 7,2 9,8 0 0 5 3 N 1030,8 17 0 0,0
13.01.2020 01:00:00 -1,8 -2,5 -6,0 7,2 9,8 2 1 9 5 SE 1031,2 19 0 0,0
13.01.2020 00:00:00 -1,5 -2,1 -5,4 7,3 9,8 0 0 9 5 N 1031,7 1,3 0 0,0
12.01.2020 23:00:00 -1,5 -2,8 -5,0 7,3 9,8 3 2 6 4 SSE 1032,2 19 0 0,0
12.01.2020 22:00:00 0,4 -0,3 -4,4 7,3 9,8 0 0 3 1 N 1032,1 11 0 0,0
12.01.2020 21:00:00 0,9 0,2 -3,4 7,3 9,8 0 0 4 2 N 1032,2 16 0 0,0
12.01.2020 20:00:00 1,5 -0,4 -2,9 7,3 9,8 0 0 4 2 N 1032,6 12 0 0,0
12.01.2020 19:00:00 2,7 0,9 -1,2 7,3 9,8 0 0 10 5 N 1032,1 20 0 0,0
12.01.2020 18:00:00 4,5 1,3 0,5 7,2 9,8 4 2 7 4 SSW 1031,5 20 0 0,0
12.01.2020 17:00:00 8,1 1,7 6,7 7,1 9,8 4 2 13 7 WSW 1030,7 20 38 0,0
12.01.2020 16:00:00 10,0 1,9 14,2 7,1 9,8 8 4 16 9 NW 1030,0 20 60 0,0
12.01.2020 15:00:00 9,6 1,2 14,1 7,1 9,8 9 5 18 10 NNW 1030,3 20 60 0,0
12.01.2020 14:00:00 9,1 1,0 14,1 7,1 9,8 13 7 19 10 NW 1030,8 20 60 0,0
12.01.2020 13:00:00 8,4 1,1 14,2 7,2 9,8 7 4 18 10 NNW 1031,6 20 60 0,0
12.01.2020 12:00:00 6,9 -0,6 11,8 7,3 9,8 0 0 4 2 N 1032,9 20 60 0,0
12.01.2020 11:00:00 3,1 -1,3 4,9 7,4 9,8 0 0 7 4 N 1033,8 20 60 0,0
12.01.2020 10:00:00 1,7 -3,2 -5,8 7,4 9,8 4 2 11 6 SE 1033,7 20 60 0,0
12.01.2020 09:00:00 -4,3 -5,1 -8,1 7,5 9,8 3 2 6 3 WNW 1034,8 20 5 0,0
12.01.2020 08:00:00 -3,8 -4,6 -8,2 7,6 9,8 0 0 7 4 N 1034,6 20 0 0,0
12.01.2020 07:00:00 -3,8 -5,3 -7,7 7,7 9,8 8 4 11 6 SSE 1034,3 20 0 0,0
12.01.2020 06:00:00 -2,8 -3,8 -7,5 7,8 9,8 0 0 6 3 N 1033,7 20 0 0,0
12.01.2020 05:00:00 -3,4 -5,0 -7,5 7,9 9,8 0 0 6 3 N 1033,4 20 0 0,0
12.01.2020 04:00:00 -2,8 -4,2 -7,4 7,9 9,8 7 4 12 7 WNW 1032,8 20 0 0,0
12.01.2020 03:00:00 -3,8 -4,9 -6,7 8,0 9,8 6 3 9 5 W 1032,5 20 0 0,0
12.01.2020 02:00:00 -2,6 -3,4 -6,4 8,1 9,8 3 2 8 4 SSW 1033,0 20 0 0,0
12.01.2020 01:00:00 -1,8 -3,4 -6,0 8,1 9,8 3 1 8 4 SSE 1033,2 20 0 0,0
12.01.2020 00:00:00 -1,7 -3,1 -4,8 8,2 9,8 3 1 8 5 SSE 1033,4 20 0 0,0
11.01.2020 23:00:00 0,5 -2,9 -3,5 8,2 9,8 5 3 20 11 E 1033,0 20 0 0,0

tt = Température de l'air
td = dewpoint
tt 5cm = Température de l'air 5cm
tt -20cm = Température de l'air -20cm
tt -100cm = Température de l'air -100cm
ff = Vitesse du vent
fx = gusts
dd = Direction du vent
ppp = reduced air pressure
vv = visibility
sd = Ensoleillement
rr = Quantités de précipitations

stations d'obs. à proximité